OPS 6431

operational
NORAD ID: 8818 Int'l Des: 1976-038 Owner: NRO/NRL Country: US
LEO

关于 OPS 6431

正在加载描述...

实时位置

正在加载3D地球...

即将过境

高度历史

Altitude vs Time

uPlot chart will show altitude changes over time

两行轨道根数

1 8818U 76038A 26071.10756568 .00000042 00000-0 69615-4 0 9990
2 8818 63.3592 347.6865 0367999 181.4273 178.5763 13.91630047 93714
Epoch: Mar 12, 2026 • Age: 20 hours

当前状态

高度 985.8 km
速度 7.34 km/s
星下点 61.04°N, 63.76°W
类型 other

大型星座

Loading constellations...